Flight Track Log - Related Links

Times and Time Zones

All times are in EDT time to prevent confusion due to time zone crossing. See the N114SP flight status page for this flight to view local times or setup timezone preferences in your user account.

Time Position Orientation Groundspeed Altitude Reporting Facility
EDT Latitude Longitude Course Direction KTS MPH feet Rate Location/Type
Wed 11:25:39 AM 44.9500 -93.0500 334° Northwest 84 97 1,800  Level Minneapolis TRACON
Wed 11:26:45 AM 44.9833 -93.0333 19° North 87 100 2,600 600 Climbing Minneapolis TRACON
Wed 11:27:19 AM 44.9892 -93.0267 39° Northeast 88 101 2,800 438 Climbing Minneapolis Center
Wed 11:28:21 AM 45.0103 -93.0131 25° Northeast 84 97 3,300 532 Climbing Minneapolis Center
Wed 11:29:23 AM 45.0361 -93.0147 357° North 78 90 3,900 484 Climbing Minneapolis Center
Wed 11:30:25 AM 45.0581 -93.0158 358° North 79 91 4,300 435 Climbing Minneapolis Center
Wed 11:31:00 AM 45.0967 -93.1726 334° Northwest  Level Estimated
Wed 11:31:27 AM 45.0806 -93.0186 355° North 80 92 4,800  Level Minneapolis Center
Wed 11:32:29 AM 45.1019 -93.0214 355° North 78 90 5,100 194 Climbing Minneapolis Center
Wed 11:33:31 AM 45.1292 -93.0214 360° North 96 110 5,200 48 Climbing Minneapolis Center
Wed 11:34:33 AM 45.1606 -93.0197 North 110 127 5,200 48 Level Minneapolis Center
Wed 11:35:35 AM 45.1964 -93.0311 347° North 109 125 5,300  Climbing Minneapolis Center
Wed 11:36:37 AM 45.2253 -93.0492 336° Northwest 113 130 5,200 -48 Descending Minneapolis Center
Wed 11:37:39 AM 45.2528 -93.0714 330° Northwest 113 130 5,200  Level Minneapolis Center
Wed 11:38:43 AM 45.2800 -93.0936 330° Northwest 114 131 5,200  Level Minneapolis Center
Wed 11:39:45 AM 45.3078 -93.1167 330° Northwest 115 132 5,200  Level Minneapolis Center
Wed 11:40:47 AM 45.3414 -93.1425 332° Northwest 113 130 5,200 -48 Level Minneapolis Center
Wed 11:41:49 AM 45.3703 -93.1642 332° Northwest 117 135 5,100 -48 Descending Minneapolis Center
Wed 11:42:51 AM 45.3983 -93.1853 332° Northwest 115 132 5,100  Level Minneapolis Center
Wed 11:43:53 AM 45.4264 -93.2081 330° Northwest 115 132 5,100  Level Minneapolis Center
Wed 11:44:55 AM 45.4550 -93.2292 333° Northwest 117 135 5,100  Level Minneapolis Center
Wed 11:45:57 AM 45.4844 -93.2531 330° Northwest 121 139 5,100  Level Minneapolis Center
Wed 11:46:59 AM 45.5186 -93.2831 328° Northwest 121 139 5,100  Level Minneapolis Center
Wed 11:48:01 AM 45.5478 -93.3075 330° Northwest 119 137 5,100  Level Minneapolis Center
Wed 11:49:03 AM 45.5758 -93.3300 331° Northwest 118 136 5,100  Level Minneapolis Center
Wed 11:50:05 AM 45.6036 -93.3553 328° Northwest 118 136 5,100  Level Minneapolis Center
Wed 11:51:07 AM 45.6314 -93.3767 332° Northwest 116 133 5,100  Level Minneapolis Center
Wed 11:52:09 AM 45.6592 -93.3992 330° Northwest 115 132 5,100  Level Minneapolis Center
Wed 11:53:11 AM 45.6942 -93.4283 330° Northwest 120 138 5,100  Level Minneapolis Center
Wed 11:54:13 AM 45.7236 -93.4492 334° Northwest 119 137 5,100  Level Minneapolis Center
Wed 11:55:15 AM 45.7522 -93.4731 330° Northwest 120 138 5,100  Level Minneapolis Center
Wed 11:56:17 AM 45.7822 -93.4942 334° Northwest 119 137 5,100  Level Minneapolis Center
Wed 11:57:19 AM 45.8117 -93.5181 331° Northwest 122 140 5,100  Level Minneapolis Center
Wed 11:58:22 AM 45.8411 -93.5417 331° Northwest 122 140 5,100  Level Minneapolis Center
Wed 11:59:24 AM 45.8767 -93.5672 333° Northwest 120 138 5,100  Level Minneapolis Center
Wed 12:00:26 PM 45.9050 -93.5897 331° Northwest 118 136 5,100  Level Minneapolis Center
Wed 12:01:28 PM 45.9331 -93.6128 330° Northwest 117 135 5,100  Level Minneapolis Center
Wed 12:02:30 PM 45.9617 -93.6347 332° Northwest 117 135 5,100  Level Minneapolis Center
Wed 12:03:32 PM 45.9900 -93.6564 332° Northwest 116 133 5,100  Level Minneapolis Center
Wed 12:04:33 PM 46.0164 -93.6781 330° Northwest 112 129 5,100  Level Minneapolis Center
Wed 12:05:35 PM 46.0486 -93.7000 335° Northwest 108 124 5,100  Level Minneapolis Center
Wed 12:06:37 PM 46.0756 -93.7203 332° Northwest 109 125 5,100  Level Minneapolis Center
Wed 12:07:39 PM 46.1017 -93.7417 330° Northwest 107 123 5,100  Level Minneapolis Center
Wed 12:08:41 PM 46.1281 -93.7633 330° Northwest 109 125 5,100  Level Minneapolis Center
Wed 12:09:44 PM 46.1556 -93.7881 328° Northwest 113 130 5,100  Level Minneapolis Center
Wed 12:10:46 PM 46.1833 -93.8128 328° Northwest 117 135 5,100 -48 Level Minneapolis Center
Wed 12:11:48 PM 46.2156 -93.8394 330° Northwest 116 133 5,000 -48 Descending Minneapolis Center
Wed 12:12:50 PM 46.2419 -93.8661 325° Northwest 116 133 5,000  Level Minneapolis Center
Wed 12:13:52 PM 46.2681 -93.8939 324° Northwest 116 133 5,000 48 Level Minneapolis Center
Wed 12:14:54 PM 46.2931 -93.9200 324° Northwest 115 132 5,100 48 Climbing Minneapolis Center
Wed 12:15:56 PM 46.3183 -93.9483 322° Northwest 114 131 5,100  Level Minneapolis Center
Wed 12:16:58 PM 46.3492 -93.9792 325° Northwest 114 131 5,100  Level Minneapolis Center
Wed 12:18:00 PM 46.3772 -94.0022 330° Northwest 114 131 5,100  Level Minneapolis Center
Wed 12:19:02 PM 46.4058 -94.0231 333° Northwest 116 133 5,100 -97 Level Minneapolis Center
Wed 12:20:04 PM 46.4350 -94.0428 335° Northwest 116 133 4,900 -387 Descending Minneapolis Center
Wed 12:21:06 PM 46.4658 -94.0639 335° Northwest 118 136 4,300 -435 Descending Minneapolis Center
Wed 12:22:08 PM 46.4981 -94.0842 337° Northwest 122 140 4,000 -145 Descending Minneapolis Center
Wed 12:23:10 PM 46.5325 -94.1050 337° Northwest 119 137 4,000  Level Minneapolis Center
Wed 12:24:12 PM 46.5600 -94.1231 336° Northwest 114 131 4,000  Level Minneapolis Center
Wed 12:25:14 PM 46.5872 -94.1442 332° Northwest 112 129 4,000  Level Minneapolis Center
Wed 12:26:16 PM 46.6150 -94.1647 333° Northwest 112 129 4,000  Level Minneapolis Center
Wed 12:27:18 PM 46.6436 -94.1856 333° Northwest 113 130 4,000  Level Minneapolis Center
Wed 12:28:20 PM 46.6694 -94.2086 329° Northwest 112 129 4,000  Level Minneapolis Center
Wed 12:29:22 PM 46.7003 -94.2381 327° Northwest 111 128 4,000  Level Minneapolis Center
Wed 12:30:24 PM 46.7275 -94.2631 328° Northwest 112 129 4,000 -97 Level Minneapolis Center
Wed 12:31:26 PM 46.7547 -94.2875 328° Northwest 113 130 3,800 -96 Descending Minneapolis Center
Wed 12:32:29 PM 46.7825 -94.3103 331° Northwest 114 131 3,800 48 Level Minneapolis Center
Wed 12:33:31 PM 46.8086 -94.3328 329° Northwest 113 130 3,900 48 Climbing Minneapolis Center
Wed 12:34:33 PM 46.8333 -94.3531 331° Northwest 109 125 3,900 48 Level Minneapolis Center
Wed 12:35:35 PM 46.8656 -94.3778 332° Northwest 108 124 4,000 48 Climbing Minneapolis Center
Wed 12:36:37 PM 46.8919 -94.4014 329° Northwest 109 125 4,000  Level Minneapolis Center
Wed 12:37:39 PM 46.9181 -94.4250 328° Northwest 110 127 4,000  Level Minneapolis Center
Wed 12:38:41 PM 46.9444 -94.4464 331° Northwest 109 125 4,000  Level Minneapolis Center
Wed 12:39:43 PM 46.9719 -94.4669 333° Northwest 110 127 4,000  Level Minneapolis Center
Wed 12:40:45 PM 47.0014 -94.4869 335° Northwest 112 129 4,000 -48 Level Minneapolis Center
Wed 12:41:47 PM 47.0356 -94.5122 333° Northwest 114 131 3,900 -48 Descending Minneapolis Center
Wed 12:42:49 PM 47.0653 -94.5339 334° Northwest 115 132 3,900  Level Minneapolis Center
Wed 12:43:51 PM 47.0939 -94.5531 335° Northwest 116 133 3,900 -48 Level Minneapolis Center
Wed 12:44:54 PM 47.1231 -94.5719 336° Northwest 115 132 3,800  Descending Minneapolis Center
Wed 12:45:56 PM 47.1506 -94.5956 330° Northwest 115 132 3,900 48 Climbing Minneapolis Center
Wed 12:46:58 PM 47.1764 -94.6214 326° Northwest 114 131 3,900  Level Minneapolis Center
Wed 12:48:00 PM 47.2108 -94.6386 341° North 113 130 3,900  Level Minneapolis Center
Wed 12:49:02 PM 47.2436 -94.6378 North 117 135 3,900  Level Minneapolis Center
Wed 12:50:04 PM 47.2758 -94.6389 359° North 117 135 3,900  Level Minneapolis Center
Wed 12:51:06 PM 47.3072 -94.6439 354° North 115 132 3,900  Level Minneapolis Center
Wed 12:52:08 PM 47.3311 -94.6750 319° Northwest 117 135 3,900 -97 Level Minneapolis Center
Wed 12:53:10 PM 47.3539 -94.7061 317° Northwest 114 131 3,700 -194 Descending Minneapolis Center
Wed 12:55:00 PM 47.3750 -94.7855 292° West  Level FlightAware Approximate
Wed 01:02:00 PM 47.5000 -94.9333 270° West  Level FlightAware Approximate
Wed 01:03:00 PM 47.5107 -94.9347 270° West  Level Estimated

Login

Don't have an account? Register now (free) for customized features, flight alerts, and more!